Weather History for PASX - December, 2011

Change the Weather History Date:

Thursday, December 8, 2011

  Actual Average Record
Temperature  
Mean Temperature 29 °F -  
Max Temperature 30 °F 22 °F 44 °F (2005)
Min Temperature 28 °F 7 °F -27 °F (1975)
Degree Days  
Heating Degree Days 36    
Moisture  
Dew Point 26 °F    
Average Humidity 90    
Maximum Humidity 93    
Minimum Humidity 86    
Precipitation  
Precipitation 0.00 in - - ()
Sea Level Pressure  
Sea Level Pressure 29.80 in    
Wind  
Wind Speed 3 mph (NE)    
Max Wind Speed 7 mph    
Max Gust Speed -    
Visibility 10 miles    
Events      
Averages and records for this station are not official NWS values.
T = Trace of Precipitation, MM = Missing Value Source: NWS Daily Summary

Daily Weather History Graph

Daily Weather History Graph

Search for Another Location

Airport or City:

Trip Planner

Search our weather history database for the weather conditions in past years. The results will help you decide how hot, cold, wet, or windy it might be!

Date:

Astronomy

Dec. 08, 2011 Rise Set
Actual Time 9:56 AM AKST 3:55 PM AKST
Civil Twilight 8:58 AM AKST 4:53 PM AKST
Nautical Twilight 8:01 AM AKST 5:50 PM AKST
Astronomical Twilight 7:09 AM AKST 6:42 PM AKST
Moon 2:45 PM AKST (12/8) 8:12 AM AKST (12/8)
Length of Visible Light 7h 54m
Length of Day
5h 59m
Waxing Gibbous, 97% of the Moon is Illuminated
Dec 8
Waxing Gibbous
Dec 10
Full
Dec 17
Last Quarter
Dec 24
New
Dec 31
First Quarter

Hourly Weather History & Observations

Time (AKST) Temp. Windchill Dew Point Humidity Pressure Visibility Wind Dir Wind Speed Gust Speed Precip Events Conditions
12:16 AM 30.2 °F - 26.6 °F 86% 29.82 in 10.0 mi Calm Calm - N/A   Overcast
12:36 AM 30.2 °F 26.7 °F 26.6 °F 86% 29.83 in - North 3.5 mph - N/A   Overcast
12:56 AM 30.2 °F 24.3 °F 26.6 °F 86% 29.82 in 10.0 mi NE 5.8 mph - N/A   Overcast
1:16 AM 30.2 °F 25.4 °F 26.6 °F 86% 29.82 in 10.0 mi North 4.6 mph - N/A   Overcast
1:36 AM 30.2 °F 26.7 °F 26.6 °F 86% 29.82 in 10.0 mi North 3.5 mph - N/A   Overcast
1:56 AM 28.4 °F - 26.6 °F 93% 29.81 in 10.0 mi Calm Calm - N/A   Overcast
2:16 AM 28.4 °F 23.3 °F 26.6 °F 93% 29.81 in 10.0 mi NW 4.6 mph - N/A   Overcast
2:36 AM 28.4 °F 24.6 °F 26.6 °F 93% 29.81 in 10.0 mi NNW 3.5 mph - N/A   Overcast
2:56 AM 28.4 °F 22.2 °F 26.6 °F 93% 29.81 in 10.0 mi NNW 5.8 mph - N/A   Overcast
3:16 AM 28.4 °F - 26.6 °F 93% 29.81 in 10.0 mi Calm Calm - N/A   Overcast
3:36 AM 28.4 °F 23.3 °F 26.6 °F 93% 29.82 in 10.0 mi North 4.6 mph - N/A   Overcast
3:56 AM 28.4 °F 23.3 °F 26.6 °F 93% 29.81 in 10.0 mi NNE 4.6 mph - N/A   Overcast
4:16 AM 28.4 °F 24.6 °F 26.6 °F 93% 29.81 in 10.0 mi North 3.5 mph - N/A   Overcast
4:36 AM 28.4 °F - 24.8 °F 86% 29.82 in 10.0 mi Calm Calm - N/A   Overcast
4:56 AM 28.4 °F - 26.6 °F 93% 29.82 in 10.0 mi Calm Calm - N/A   Overcast
5:16 AM 28.4 °F 24.6 °F 26.6 °F 93% 29.81 in 10.0 mi NE 3.5 mph - N/A   Overcast
5:36 AM 28.4 °F 24.6 °F 26.6 °F 93% 29.81 in 10.0 mi ENE 3.5 mph - N/A   Overcast
5:56 AM 28.4 °F 24.6 °F 24.8 °F 86% 29.81 in 10.0 mi ENE 3.5 mph - N/A   Overcast
6:16 AM 28.4 °F - 26.6 °F 93% 29.80 in 10.0 mi Calm Calm - N/A   Overcast
6:36 AM 28.4 °F - 26.6 °F 93% 29.80 in 10.0 mi Calm Calm - N/A   Overcast
6:56 AM 28.4 °F - 26.6 °F 93% 29.80 in 10.0 mi Calm Calm - N/A   Overcast
7:16 AM 28.4 °F 23.3 °F 26.6 °F 93% 29.80 in 10.0 mi ENE 4.6 mph - N/A   Overcast
7:36 AM 28.4 °F 24.6 °F 26.6 °F 93% 29.80 in 10.0 mi NE 3.5 mph - N/A   Overcast
7:56 AM 28.4 °F - 24.8 °F 86% 29.80 in 10.0 mi Calm Calm - N/A   Overcast
8:16 AM 28.4 °F 23.3 °F 26.6 °F 93% 29.80 in 10.0 mi NE 4.6 mph - N/A   Overcast
8:36 AM 28.4 °F 24.6 °F 24.8 °F 86% 29.79 in 10.0 mi ENE 3.5 mph - N/A   Mostly Cloudy
8:56 AM 28.4 °F - 24.8 °F 86% 29.79 in 10.0 mi Calm Calm - N/A   Mostly Cloudy
9:16 AM 28.4 °F - 24.8 °F 86% 29.80 in 10.0 mi Calm Calm - N/A   Overcast
9:36 AM 28.4 °F - 24.8 °F 86% 29.80 in 10.0 mi Calm Calm - N/A   Overcast
9:56 AM 28.4 °F - 26.6 °F 93% 29.80 in 10.0 mi Calm Calm - N/A   Overcast
10:16 AM 28.4 °F - 26.6 °F 93% 29.80 in 10.0 mi Calm Calm - N/A   Overcast
10:36 AM 28.4 °F 21.2 °F 26.6 °F 93% 29.80 in 10.0 mi NE 6.9 mph - N/A   Overcast
10:56 AM 28.4 °F 22.2 °F 26.6 °F 93% 29.80 in 10.0 mi ENE 5.8 mph - N/A   Overcast
11:16 AM 28.4 °F 24.6 °F 26.6 °F 93% 29.80 in 10.0 mi NE 3.5 mph - N/A   Overcast
11:36 AM 28.4 °F 24.6 °F 26.6 °F 93% 29.80 in 10.0 mi NE 3.5 mph - N/A   Overcast
11:56 AM 28.4 °F 24.6 °F 26.6 °F 93% 29.80 in 10.0 mi NE 3.5 mph - N/A   Overcast
12:16 PM 28.4 °F 22.2 °F 26.6 °F 93% 29.80 in 10.0 mi ENE 5.8 mph - N/A   Overcast
12:36 PM 28.4 °F 22.2 °F 26.6 °F 93% 29.79 in 10.0 mi East 5.8 mph - N/A   Overcast
12:56 PM 28.4 °F 24.6 °F 26.6 °F 93% 29.80 in 10.0 mi NNE 3.5 mph - N/A   Overcast
1:16 PM 30.2 °F - 26.6 °F 86% 29.79 in 10.0 mi Calm Calm - N/A   Overcast
1:36 PM 30.2 °F 26.7 °F 26.6 °F 86% 29.79 in 10.0 mi NNE 3.5 mph - N/A   Overcast
1:56 PM 30.2 °F 25.4 °F 26.6 °F 86% 29.79 in 10.0 mi NNE 4.6 mph - N/A   Overcast
2:16 PM 30.2 °F 26.7 °F 26.6 °F 86% 29.79 in 10.0 mi ESE 3.5 mph - N/A   Overcast
2:36 PM 30.2 °F 26.7 °F 26.6 °F 86% 29.79 in 1.5 mi East 3.5 mph - N/A   Overcast
2:56 PM 30.2 °F 26.7 °F 26.6 °F 86% 29.78 in 10.0 mi East 3.5 mph - N/A   Overcast
3:16 PM 30.2 °F 25.4 °F 26.6 °F 86% 29.78 in 7.0 mi East 4.6 mph - N/A   Overcast
3:36 PM 30.2 °F 26.7 °F 26.6 °F 86% 29.77 in 10.0 mi East 3.5 mph - N/A   Overcast
3:56 PM 30.2 °F 26.7 °F 26.6 °F 86% 29.77 in 10.0 mi East 3.5 mph - N/A   Overcast
4:16 PM 30.2 °F 24.3 °F 26.6 °F 86% 29.77 in 10.0 mi East 5.8 mph - N/A   Overcast
4:36 PM 28.4 °F 24.6 °F 26.6 °F 93% 29.77 in 10.0 mi East 3.5 mph - N/A   Overcast
4:56 PM 28.4 °F 24.6 °F 26.6 °F 93% 29.77 in 10.0 mi ESE 3.5 mph - N/A   Overcast
5:16 PM 28.4 °F - 26.6 °F 93% 29.77 in 5.0 mi Calm Calm - N/A   Overcast
5:36 PM 28.4 °F 24.6 °F 26.6 °F 93% 29.77 in 9.0 mi ENE 3.5 mph - N/A   Overcast
5:56 PM 28.4 °F - 26.6 °F 93% 29.77 in 10.0 mi Calm Calm - N/A   Mostly Cloudy
6:16 PM 28.4 °F 24.6 °F 26.6 °F 93% 29.76 in - East 3.5 mph - N/A   Unknown
6:36 PM 28.4 °F 24.6 °F 28.4 °F 100% 29.76 in 10.0 mi East 3.5 mph - N/A   Overcast
6:56 PM 28.4 °F - 28.4 °F 100% 29.76 in 10.0 mi Calm Calm - N/A   Overcast
7:16 PM 30.2 °F - 28.4 °F 93% 29.76 in 10.0 mi Calm Calm - N/A   Overcast
7:36 PM 30.2 °F - 28.4 °F 93% 29.76 in - Calm Calm - N/A   Unknown
7:56 PM 30.2 °F - 28.4 °F 93% 29.76 in - Calm Calm - N/A   Unknown
8:16 PM 28.4 °F - 28.4 °F 100% 29.76 in - Calm Calm - N/A   Overcast
8:36 PM 30.2 °F - 28.4 °F 93% 29.76 in - Calm Calm - N/A   Overcast
8:56 PM 28.4 °F - 28.4 °F 100% 29.76 in - Calm Calm - N/A   Unknown
9:16 PM 28.4 °F - 28.4 °F 100% 29.76 in 3.0 mi Calm Calm - N/A   Overcast
9:36 PM 28.4 °F - 26.6 °F 93% 29.76 in - Calm Calm - N/A   Unknown
9:56 PM 28.4 °F - 28.4 °F 100% 29.76 in - Calm Calm - N/A   Unknown
10:16 PM 28.4 °F - 28.4 °F 100% 29.77 in - Calm Calm - N/A   Overcast
10:36 PM 28.4 °F - 28.4 °F 100% 29.77 in - Calm Calm - N/A   Overcast
10:56 PM 28.4 °F - 28.4 °F 100% 29.77 in - Calm Calm - N/A   Overcast
11:16 PM 28.4 °F - 28.4 °F 100% 29.77 in - Calm Calm - N/A   Overcast
11:36 PM 28.4 °F - 28.4 °F 100% 29.77 in - Calm Calm - N/A   Overcast
11:56 PM 28.4 °F - 28.4 °F 100% 29.77 in - Calm Calm - N/A   Overcast